TimePST,TemperatureF,Dew PointF,Humidity,Sea Level PressureIn,VisibilityMPH,Wind Direction,Wind SpeedMPH,Gust SpeedMPH,PrecipitationIn,Events,Conditions,WindDirDegrees,DateUTC
12:56 AM,42.1,37.9,85,29.97,10.0,South,10.4,-,0.00,,Overcast,170,2013-02-07 08:56:00
1:56 AM,42.1,37.9,85,29.98,10.0,SSE,9.2,-,N/A,,Overcast,160,2013-02-07 09:56:00
2:09 AM,42.8,39.2,87,29.98,10.0,SSE,6.9,-,N/A,,Overcast,160,2013-02-07 10:09:00
2:47 AM,41.0,37.4,87,29.99,10.0,SSE,11.5,-,N/A,,Overcast,160,2013-02-07 10:47:00
2:56 AM,41.0,37.9,89,30.00,10.0,South,13.8,-,N/A,,Overcast,170,2013-02-07 10:56:00
3:12 AM,39.2,37.4,93,29.99,10.0,South,11.5,-,N/A,,Scattered Clouds,180,2013-02-07 11:12:00
3:56 AM,39.9,37.0,89,30.00,10.0,South,11.5,-,N/A,,Mostly Cloudy,170,2013-02-07 11:56:00
4:56 AM,39.0,37.0,93,30.01,10.0,South,12.7,-,N/A,,Overcast,180,2013-02-07 12:56:00
5:56 AM,37.9,36.0,93,30.01,10.0,SSE,6.9,-,N/A,,Clear,150,2013-02-07 13:56:00
6:56 AM,37.0,35.1,93,30.01,10.0,SSE,6.9,-,N/A,,Scattered Clouds,150,2013-02-07 14:56:00
7:56 AM,37.0,36.0,96,30.01,10.0,SSE,9.2,-,N/A,,Mostly Cloudy,160,2013-02-07 15:56:00
8:56 AM,42.1,39.0,89,30.02,10.0,South,9.2,-,N/A,,Mostly Cloudy,170,2013-02-07 16:56:00
9:56 AM,43.0,39.0,86,30.02,10.0,SSE,9.2,-,N/A,,Scattered Clouds,160,2013-02-07 17:56:00
10:56 AM,46.0,39.0,76,30.03,10.0,South,10.4,-,N/A,,Mostly Cloudy,190,2013-02-07 18:56:00
11:56 AM,46.0,37.0,71,30.02,10.0,South,11.5,-,N/A,,Mostly Cloudy,170,2013-02-07 19:56:00
12:56 PM,48.9,37.0,64,30.00,10.0,South,11.5,-,N/A,,Mostly Cloudy,180,2013-02-07 20:56:00
1:56 PM,46.9,36.0,66,29.99,10.0,SSW,9.2,-,N/A,,Mostly Cloudy,200,2013-02-07 21:56:00
2:02 PM,46.4,35.6,66,29.99,10.0,SSW,13.8,19.6,N/A,,Mostly Cloudy,200,2013-02-07 22:02:00
2:56 PM,46.9,37.9,71,29.99,10.0,SSE,8.1,-,0.00,,Mostly Cloudy,160,2013-02-07 22:56:00
3:56 PM,46.0,39.0,76,30.01,10.0,SSE,11.5,-,0.00,Rain,Light Rain,150,2013-02-07 23:56:00
4:56 PM,42.1,37.9,85,30.02,10.0,Calm,Calm,-,0.11,Rain,Light Rain,0,2013-02-08 00:56:00
5:56 PM,39.9,39.0,97,30.04,10.0,ESE,3.5,-,0.00,,Overcast,120,2013-02-08 01:56:00
6:56 PM,39.9,37.9,93,30.06,10.0,ESE,3.5,-,0.02,,Overcast,110,2013-02-08 02:56:00
7:56 PM,39.0,37.9,96,30.07,10.0,Calm,Calm,-,N/A,,Mostly Cloudy,0,2013-02-08 03:56:00
8:56 PM,37.0,37.0,100,30.09,7.0,Calm,Calm,-,N/A,,Mostly Cloudy,0,2013-02-08 04:56:00
9:56 PM,37.0,36.0,96,30.11,5.0,Calm,Calm,-,N/A,,Partly Cloudy,0,2013-02-08 05:56:00
10:08 PM,35.6,35.6,100,30.11,2.0,Calm,Calm,-,N/A,,Clear,0,2013-02-08 06:08:00
10:17 PM,35.6,35.6,100,30.11,4.0,Calm,Calm,-,N/A,,Clear,0,2013-02-08 06:17:00
10:56 PM,35.1,35.1,100,30.12,4.0,Calm,Calm,-,N/A,,Clear,0,2013-02-08 06:56:00
11:08 PM,33.8,33.8,100,30.12,1.8,SSW,3.5,-,N/A,,Clear,200,2013-02-08 07:08:00
11:16 PM,33.8,33.8,100,30.12,1.2,Calm,Calm,-,N/A,,Clear,0,2013-02-08 07:16:00
11:29 PM,33.8,33.8,100,30.12,0.5,Calm,Calm,-,N/A,Fog,Fog,0,2013-02-08 07:29:00
11:56 PM,33.1,33.1,100,30.15,0.5,Calm,Calm,-,N/A,Fog,Fog,0,2013-02-08 07:56:00